Year,Month,Day,Hour,Minute,Value (Times are PST for windgust in km/hr)
2015,08,28,00,00,3.20
2015,08,28,00,01,1.60
2015,08,28,00,02,9.60
2015,08,28,00,03,8.10
2015,08,28,00,04,12.90
2015,08,28,00,05,6.40
2015,08,28,00,06,4.80
2015,08,28,00,07,3.20
2015,08,28,00,10,3.20
2015,08,28,00,11,1.60
2015,08,28,00,12,3.20
2015,08,28,00,13,3.20
2015,08,28,00,14,3.20
2015,08,28,00,20,6.40
2015,08,28,00,21,4.80
2015,08,28,00,22,4.80
2015,08,28,00,23,1.60
2015,08,28,00,24,6.40
2015,08,28,00,25,1.60
2015,08,28,00,26,3.20
2015,08,28,00,27,3.20
2015,08,28,00,28,3.20
2015,08,28,00,29,3.20
2015,08,28,00,30,3.20
2015,08,28,00,31,3.20
2015,08,28,00,32,3.20
2015,08,28,00,35,1.60
2015,08,28,00,36,3.20
2015,08,28,00,37,3.20
2015,08,28,00,38,3.20
2015,08,28,00,40,3.20
2015,08,28,00,41,3.20
2015,08,28,00,43,4.80
2015,08,28,00,46,1.60
2015,08,28,00,47,11.30
2015,08,28,00,48,6.40
2015,08,28,00,50,4.80
2015,08,28,00,51,3.20
2015,08,28,00,52,4.80
2015,08,28,00,53,4.80
2015,08,28,00,54,4.80
2015,08,28,00,55,1.60
2015,08,28,00,56,3.20
2015,08,28,00,57,4.80
2015,08,28,00,58,3.20
2015,08,28,00,59,3.20
2015,08,28,01,00,4.80
2015,08,28,01,01,3.20
2015,08,28,01,02,1.60
2015,08,28,01,06,1.60
2015,08,28,01,07,1.60
2015,08,28,01,10,3.20
2015,08,28,01,11,3.20
2015,08,28,01,12,3.20
2015,08,28,01,13,1.60
2015,08,28,01,15,3.20
2015,08,28,01,16,3.20
2015,08,28,01,17,3.20
2015,08,28,01,18,3.20
2015,08,28,01,19,3.20
2015,08,28,01,20,3.20
2015,08,28,01,21,3.20
2015,08,28,01,22,3.20
2015,08,28,01,23,3.20
2015,08,28,01,24,3.20
2015,08,28,01,25,3.20
2015,08,28,01,31,3.20
2015,08,28,01,32,3.20
2015,08,28,01,33,4.80
2015,08,28,01,34,3.20
2015,08,28,01,35,3.20
2015,08,28,01,36,3.20
2015,08,28,01,37,3.20
2015,08,28,01,38,3.20
2015,08,28,01,39,3.20
2015,08,28,01,40,4.80
2015,08,28,01,41,4.80
2015,08,28,01,42,4.80
2015,08,28,01,43,4.80
2015,08,28,01,44,4.80
2015,08,28,01,45,4.80
2015,08,28,01,46,4.80
2015,08,28,01,47,6.40
2015,08,28,01,48,4.80
2015,08,28,01,49,4.80
2015,08,28,01,50,3.20
2015,08,28,01,51,3.20
2015,08,28,01,52,3.20
2015,08,28,01,53,3.20
2015,08,28,01,54,3.20
2015,08,28,01,55,3.20
2015,08,28,01,56,1.60
2015,08,28,01,57,3.20
2015,08,28,01,58,3.20
2015,08,28,01,59,1.60
2015,08,28,02,00,3.20
2015,08,28,02,01,3.20
2015,08,28,02,02,1.60
2015,08,28,02,07,3.20
2015,08,28,02,08,4.80
2015,08,28,02,09,4.80
2015,08,28,02,10,4.80
2015,08,28,02,11,3.20
2015,08,28,02,12,3.20
2015,08,28,02,13,3.20
2015,08,28,02,14,3.20
2015,08,28,02,15,3.20
2015,08,28,02,16,3.20
2015,08,28,02,17,3.20
2015,08,28,02,20,1.60
2015,08,28,02,21,3.20
2015,08,28,02,22,4.80
2015,08,28,02,23,3.20
2015,08,28,02,24,3.20
2015,08,28,02,25,4.80
2015,08,28,02,26,3.20
2015,08,28,02,27,3.20
2015,08,28,02,28,3.20
2015,08,28,02,29,1.60
2015,08,28,02,34,1.60
2015,08,28,02,35,1.60
2015,08,28,02,41,1.60
2015,08,28,02,54,3.20
2015,08,28,02,55,1.60
2015,08,28,02,59,3.20
2015,08,28,03,00,1.60
2015,08,28,03,01,3.20
2015,08,28,03,02,1.60
2015,08,28,03,04,3.20
2015,08,28,03,07,1.60
2015,08,28,03,08,1.60
2015,08,28,03,09,3.20
2015,08,28,03,10,3.20
2015,08,28,03,11,3.20
2015,08,28,03,12,3.20
2015,08,28,03,13,3.20
2015,08,28,03,14,3.20
2015,08,28,03,15,3.20
2015,08,28,03,16,1.60
2015,08,28,03,18,1.60
2015,08,28,03,20,1.60
2015,08,28,03,21,1.60
2015,08,28,03,22,1.60
2015,08,28,03,23,4.80
2015,08,28,03,24,3.20
2015,08,28,03,25,3.20
2015,08,28,03,26,3.20
2015,08,28,03,27,4.80
2015,08,28,03,28,4.80
2015,08,28,03,29,4.80
2015,08,28,03,30,3.20
2015,08,28,03,31,3.20
2015,08,28,03,32,3.20
2015,08,28,03,33,3.20
2015,08,28,03,34,4.80
2015,08,28,03,35,4.80
2015,08,28,03,36,4.80
2015,08,28,03,37,3.20
2015,08,28,03,38,4.80
2015,08,28,03,39,4.80
2015,08,28,03,40,3.20
2015,08,28,03,41,3.20
2015,08,28,03,42,3.20
2015,08,28,03,46,1.60
2015,08,28,03,56,3.20
2015,08,28,03,57,3.20
2015,08,28,04,07,1.60
2015,08,28,04,08,1.60
2015,08,28,04,21,1.60
2015,08,28,04,22,1.60
2015,08,28,04,23,3.20
2015,08,28,04,24,3.20
2015,08,28,04,25,3.20
2015,08,28,04,26,3.20
2015,08,28,04,27,3.20
2015,08,28,04,29,1.60
2015,08,28,04,30,3.20
2015,08,28,04,31,1.60
2015,08,28,04,33,4.80
2015,08,28,04,34,4.80
2015,08,28,04,35,3.20
2015,08,28,04,36,4.80
2015,08,28,04,37,4.80
2015,08,28,04,38,4.80
2015,08,28,04,39,6.40
2015,08,28,04,40,9.60
2015,08,28,04,41,4.80
2015,08,28,04,42,3.20
2015,08,28,04,43,4.80
2015,08,28,04,44,3.20
2015,08,28,04,45,3.20
2015,08,28,04,46,1.60
2015,08,28,04,49,1.60
2015,08,28,04,50,3.20
2015,08,28,05,29,1.60
2015,08,28,05,30,3.20
2015,08,28,05,31,1.60
2015,08,28,05,32,4.80
2015,08,28,05,33,3.20
2015,08,28,05,34,4.80
2015,08,28,05,35,3.20
2015,08,28,05,36,4.80
2015,08,28,05,37,1.60
2015,08,28,05,50,3.20
2015,08,28,05,51,3.20
2015,08,28,05,52,4.80
2015,08,28,06,57,3.20
2015,08,28,06,58,3.20
2015,08,28,06,59,1.60
2015,08,28,07,10,3.20
2015,08,28,07,11,3.20
2015,08,28,07,12,3.20
2015,08,28,07,13,3.20
2015,08,28,07,14,3.20
2015,08,28,08,06,1.60
2015,08,28,08,07,3.20
2015,08,28,08,08,3.20
2015,08,28,08,09,3.20
2015,08,28,08,10,3.20
2015,08,28,08,27,1.60
2015,08,28,08,28,3.20
2015,08,28,08,29,3.20
2015,08,28,08,30,3.20
2015,08,28,08,31,3.20
2015,08,28,08,32,3.20
2015,08,28,08,35,4.80
2015,08,28,08,36,4.80
2015,08,28,08,37,4.80
2015,08,28,08,38,3.20
2015,08,28,08,39,3.20
2015,08,28,08,40,3.20
2015,08,28,08,42,1.60
2015,08,28,08,43,4.80
2015,08,28,08,44,3.20
2015,08,28,08,45,3.20
2015,08,28,08,46,1.60
2015,08,28,08,51,1.60
2015,08,28,08,52,3.20
2015,08,28,08,53,3.20
2015,08,28,08,54,4.80
2015,08,28,08,55,3.20
2015,08,28,08,56,3.20
2015,08,28,08,57,3.20
2015,08,28,08,58,4.80
2015,08,28,08,59,1.60
2015,08,28,09,02,1.60
2015,08,28,09,05,3.20
2015,08,28,09,06,3.20
2015,08,28,09,08,3.20
2015,08,28,09,09,4.80
2015,08,28,09,10,4.80
2015,08,28,09,11,6.40
2015,08,28,09,12,4.80
2015,08,28,09,13,3.20
2015,08,28,09,14,4.80
2015,08,28,09,15,4.80
2015,08,28,09,16,4.80
2015,08,28,09,17,6.40
2015,08,28,09,18,4.80
2015,08,28,09,19,4.80
2015,08,28,09,20,6.40
2015,08,28,09,21,3.20
2015,08,28,09,22,3.20
2015,08,28,09,23,3.20
2015,08,28,09,24,3.20
2015,08,28,09,25,4.80
2015,08,28,09,26,6.40
2015,08,28,09,27,4.80
2015,08,28,09,28,4.80
2015,08,28,09,29,4.80
2015,08,28,09,30,4.80
2015,08,28,09,31,3.20
2015,08,28,09,32,4.80
2015,08,28,09,33,4.80
2015,08,28,09,34,1.60
2015,08,28,09,35,4.80
2015,08,28,09,36,4.80
2015,08,28,09,37,4.80
2015,08,28,09,38,4.80
2015,08,28,09,39,6.40
2015,08,28,09,40,8.10
2015,08,28,09,41,6.40
2015,08,28,09,42,6.40
2015,08,28,09,43,4.80
2015,08,28,09,44,3.20
2015,08,28,09,45,6.40
2015,08,28,09,46,6.40
2015,08,28,09,47,6.40
2015,08,28,09,48,4.80
2015,08,28,09,49,3.20
2015,08,28,09,50,4.80
2015,08,28,09,51,9.60
2015,08,28,09,52,4.80
2015,08,28,09,53,4.80
2015,08,28,09,54,3.20
2015,08,28,09,55,3.20
2015,08,28,09,56,1.60
2015,08,28,09,57,6.40
2015,08,28,09,58,4.80
2015,08,28,09,59,4.80
2015,08,28,10,00,3.20
2015,08,28,10,01,4.80
2015,08,28,10,02,4.80
2015,08,28,10,03,4.80
2015,08,28,10,04,6.40
2015,08,28,10,05,6.40
2015,08,28,10,06,6.40
2015,08,28,10,07,4.80
2015,08,28,10,08,3.20
2015,08,28,10,09,4.80
2015,08,28,10,10,3.20
2015,08,28,10,11,4.80
2015,08,28,10,12,4.80
2015,08,28,10,13,8.10
2015,08,28,10,14,6.40
2015,08,28,10,15,3.20
2015,08,28,10,16,8.10
2015,08,28,10,17,8.10
2015,08,28,10,18,6.40
2015,08,28,10,19,6.40
2015,08,28,10,20,6.40
2015,08,28,10,21,3.20
2015,08,28,10,22,4.80
2015,08,28,10,23,4.80
2015,08,28,10,24,3.20
2015,08,28,10,25,8.10
2015,08,28,10,26,8.10
2015,08,28,10,27,6.40
2015,08,28,10,28,9.60
2015,08,28,10,29,4.80
2015,08,28,10,30,6.40
2015,08,28,10,31,8.10
2015,08,28,10,32,11.30
2015,08,28,10,33,9.60
2015,08,28,10,34,9.60
2015,08,28,10,35,12.90
2015,08,28,10,36,17.70
2015,08,28,10,37,8.10
2015,08,28,10,38,9.60
2015,08,28,10,39,8.10
2015,08,28,10,40,6.40
2015,08,28,10,41,8.10
2015,08,28,10,42,6.40
2015,08,28,10,43,9.60
2015,08,28,10,44,9.60
2015,08,28,10,45,8.10
2015,08,28,10,46,12.90
2015,08,28,10,47,11.30
2015,08,28,10,48,9.60
2015,08,28,10,49,12.90
2015,08,28,10,50,17.70
2015,08,28,10,51,11.30
2015,08,28,10,52,8.10
2015,08,28,10,53,9.60
2015,08,28,10,54,14.50
2015,08,28,10,55,16.10
2015,08,28,10,56,11.30
2015,08,28,10,57,8.10
2015,08,28,10,58,9.60
2015,08,28,10,59,9.60
2015,08,28,11,00,8.10
2015,08,28,11,01,6.40
2015,08,28,11,02,9.60
2015,08,28,11,03,8.10
2015,08,28,11,04,11.30
2015,08,28,11,05,9.60
2015,08,28,11,06,9.60
2015,08,28,11,07,11.30
2015,08,28,11,08,11.30
2015,08,28,11,09,8.10
2015,08,28,11,10,8.10
2015,08,28,11,11,6.40
2015,08,28,11,12,11.30
2015,08,28,11,13,11.30
2015,08,28,11,14,9.60
2015,08,28,11,15,9.60
2015,08,28,11,16,9.60
2015,08,28,11,17,11.30
2015,08,28,11,18,14.50
2015,08,28,11,19,9.60
2015,08,28,11,20,4.80
2015,08,28,11,21,6.40
2015,08,28,11,22,3.20
2015,08,28,11,23,4.80
2015,08,28,11,24,8.10
2015,08,28,11,25,4.80
2015,08,28,11,26,4.80
2015,08,28,11,27,4.80
2015,08,28,11,28,4.80
2015,08,28,11,29,6.40
2015,08,28,11,30,6.40
2015,08,28,11,31,4.80
2015,08,28,11,32,6.40
2015,08,28,11,33,6.40
2015,08,28,11,34,6.40
2015,08,28,11,35,8.10
2015,08,28,11,36,8.10
2015,08,28,11,37,6.40
2015,08,28,11,38,4.80
2015,08,28,11,39,8.10
2015,08,28,11,40,8.10
2015,08,28,11,41,6.40
2015,08,28,11,42,6.40
2015,08,28,11,43,8.10
2015,08,28,11,44,8.10
2015,08,28,11,45,9.60
2015,08,28,11,46,8.10
2015,08,28,11,47,4.80
2015,08,28,11,48,6.40
2015,08,28,11,49,6.40
2015,08,28,11,50,6.40
2015,08,28,11,51,9.60
2015,08,28,11,52,9.60
2015,08,28,11,53,9.60
2015,08,28,11,54,8.10
2015,08,28,11,55,9.60
2015,08,28,11,56,9.60
2015,08,28,11,57,9.60
2015,08,28,11,58,8.10
2015,08,28,11,59,9.60
2015,08,28,12,00,9.60
2015,08,28,12,01,8.10
2015,08,28,12,02,9.60
2015,08,28,12,03,8.10
2015,08,28,12,04,8.10
2015,08,28,12,05,8.10
2015,08,28,12,06,6.40
2015,08,28,12,07,9.60
2015,08,28,12,08,8.10
2015,08,28,12,09,9.60
2015,08,28,12,10,4.80
2015,08,28,12,11,8.10
2015,08,28,12,12,6.40
2015,08,28,12,13,8.10
2015,08,28,12,14,6.40
2015,08,28,12,15,4.80
2015,08,28,12,16,6.40
2015,08,28,12,17,4.80
2015,08,28,12,18,4.80
2015,08,28,12,19,8.10
2015,08,28,12,20,3.20
2015,08,28,12,21,3.20
2015,08,28,12,22,6.40
2015,08,28,12,23,3.20
2015,08,28,12,24,4.80
2015,08,28,12,25,1.60
2015,08,28,12,26,6.40
2015,08,28,12,27,8.10
2015,08,28,12,28,6.40
2015,08,28,12,29,1.60
2015,08,28,12,30,6.40
2015,08,28,12,31,4.80
2015,08,28,12,32,8.10
2015,08,28,12,33,8.10
2015,08,28,12,34,8.10
2015,08,28,12,35,4.80
2015,08,28,12,36,4.80
2015,08,28,12,37,9.60
2015,08,28,12,38,9.60
2015,08,28,12,39,4.80
2015,08,28,12,40,8.10
2015,08,28,12,41,8.10
2015,08,28,12,42,8.10
2015,08,28,12,43,8.10
2015,08,28,12,44,6.40
2015,08,28,12,45,6.40
2015,08,28,12,46,8.10
2015,08,28,12,47,9.60
2015,08,28,12,48,4.80
2015,08,28,12,49,4.80
2015,08,28,12,50,1.60
2015,08,28,12,51,4.80
2015,08,28,12,52,6.40
2015,08,28,12,53,3.20
2015,08,28,12,54,6.40
2015,08,28,12,55,8.10
2015,08,28,12,56,9.60
2015,08,28,12,57,4.80
2015,08,28,12,58,3.20
2015,08,28,12,59,8.10
2015,08,28,13,00,4.80
2015,08,28,13,01,8.10
2015,08,28,13,02,9.60
2015,08,28,13,03,4.80
2015,08,28,13,04,8.10
2015,08,28,13,05,6.40
2015,08,28,13,06,4.80
2015,08,28,13,07,6.40
2015,08,28,13,08,8.10
2015,08,28,13,09,6.40
2015,08,28,13,10,3.20
2015,08,28,13,11,6.40
2015,08,28,13,12,6.40
2015,08,28,13,13,4.80
2015,08,28,13,14,9.60
2015,08,28,13,15,6.40
2015,08,28,13,16,8.10
2015,08,28,13,17,6.40
2015,08,28,13,18,14.50
2015,08,28,13,19,9.60
2015,08,28,13,20,4.80
2015,08,28,13,21,1.60
2015,08,28,13,22,4.80
2015,08,28,13,23,6.40
2015,08,28,13,24,9.60
2015,08,28,13,25,14.50
2015,08,28,13,26,6.40
2015,08,28,13,27,1.60
2015,08,28,13,28,6.40
2015,08,28,13,29,12.90
2015,08,28,13,30,8.10
2015,08,28,13,31,8.10
2015,08,28,13,32,6.40
2015,08,28,13,33,6.40
2015,08,28,13,34,9.60
2015,08,28,13,35,6.40
2015,08,28,13,36,12.90
2015,08,28,13,37,6.40
2015,08,28,13,38,8.10
2015,08,28,13,39,6.40
2015,08,28,13,40,8.10
2015,08,28,13,41,9.60
2015,08,28,13,42,9.60
2015,08,28,13,43,6.40
2015,08,28,13,44,3.20
2015,08,28,13,45,8.10
2015,08,28,13,46,8.10
2015,08,28,13,47,6.40
2015,08,28,13,48,8.10
2015,08,28,13,49,8.10
2015,08,28,13,50,4.80
2015,08,28,13,51,9.60
2015,08,28,13,52,6.40
2015,08,28,13,53,6.40
2015,08,28,13,54,8.10
2015,08,28,13,55,8.10
2015,08,28,13,56,9.60
2015,08,28,13,57,9.60
2015,08,28,13,58,6.40
2015,08,28,13,59,8.10
2015,08,28,14,00,6.40
2015,08,28,14,01,8.10
2015,08,28,14,02,12.90
2015,08,28,14,03,9.60
2015,08,28,14,04,8.10
2015,08,28,14,05,9.60
2015,08,28,14,06,11.30
2015,08,28,14,07,6.40
2015,08,28,14,08,9.60
2015,08,28,14,09,9.60
2015,08,28,14,10,6.40
2015,08,28,14,11,4.80
2015,08,28,14,12,9.60
2015,08,28,14,13,14.50
2015,08,28,14,14,11.30
2015,08,28,14,15,9.60
2015,08,28,14,16,3.20
2015,08,28,14,17,8.10
2015,08,28,14,18,9.60
2015,08,28,14,19,14.50
2015,08,28,14,20,9.60
2015,08,28,14,21,9.60
2015,08,28,14,22,6.40
2015,08,28,14,23,6.40
2015,08,28,14,24,9.60
2015,08,28,14,25,11.30
2015,08,28,14,26,9.60
2015,08,28,14,27,8.10
2015,08,28,14,28,14.50
2015,08,28,14,29,16.10
2015,08,28,14,30,11.30
2015,08,28,14,31,9.60
2015,08,28,14,32,6.40
2015,08,28,14,33,16.10
2015,08,28,14,34,11.30
2015,08,28,14,35,14.50
2015,08,28,14,36,8.10
2015,08,28,14,37,19.30
2015,08,28,14,38,12.90
2015,08,28,14,39,6.40
2015,08,28,14,40,16.10
2015,08,28,14,41,11.30
2015,08,28,14,42,11.30
2015,08,28,14,43,11.30
2015,08,28,14,44,9.60
2015,08,28,14,45,9.60
2015,08,28,14,46,8.10
2015,08,28,14,47,4.80
2015,08,28,14,48,3.20
2015,08,28,14,49,9.60
2015,08,28,14,50,11.30
2015,08,28,14,51,6.40
2015,08,28,14,52,14.50
2015,08,28,14,53,8.10
2015,08,28,14,54,6.40
2015,08,28,14,55,6.40
2015,08,28,14,56,6.40
2015,08,28,14,57,11.30
2015,08,28,14,58,9.60
2015,08,28,14,59,9.60
2015,08,28,15,00,9.60
2015,08,28,15,01,6.40
2015,08,28,15,02,8.10
2015,08,28,15,03,6.40
2015,08,28,15,04,8.10
2015,08,28,15,05,6.40
2015,08,28,15,06,11.30
2015,08,28,15,07,8.10
2015,08,28,15,08,6.40
2015,08,28,15,09,4.80
2015,08,28,15,10,4.80
2015,08,28,15,11,8.10
2015,08,28,15,12,4.80
2015,08,28,15,13,19.30
2015,08,28,15,14,6.40
2015,08,28,15,15,6.40
2015,08,28,15,16,6.40
2015,08,28,15,17,8.10
2015,08,28,15,18,6.40
2015,08,28,15,19,8.10
2015,08,28,15,20,6.40
2015,08,28,15,21,6.40
2015,08,28,15,22,6.40
2015,08,28,15,23,8.10
2015,08,28,15,24,4.80
2015,08,28,15,25,6.40
2015,08,28,15,26,6.40
2015,08,28,15,27,4.80
2015,08,28,15,28,4.80
2015,08,28,15,29,4.80
2015,08,28,15,30,4.80
2015,08,28,15,31,8.10
2015,08,28,15,32,6.40
2015,08,28,15,33,3.20
2015,08,28,15,34,6.40
2015,08,28,15,35,3.20
2015,08,28,15,36,6.40
2015,08,28,15,37,6.40
2015,08,28,15,38,4.80
2015,08,28,15,39,6.40
2015,08,28,15,40,6.40
2015,08,28,15,41,8.10
2015,08,28,15,42,4.80
2015,08,28,15,43,1.60
2015,08,28,15,44,3.20
2015,08,28,15,45,4.80
2015,08,28,15,46,4.80
2015,08,28,15,47,6.40
2015,08,28,15,48,4.80
2015,08,28,15,49,4.80
2015,08,28,15,50,3.20
2015,08,28,15,51,6.40
2015,08,28,15,52,3.20
2015,08,28,15,53,4.80
2015,08,28,15,54,4.80
2015,08,28,15,55,6.40
2015,08,28,15,56,6.40
2015,08,28,15,57,4.80
2015,08,28,15,58,4.80
2015,08,28,15,59,3.20
2015,08,28,16,00,6.40
2015,08,28,16,01,6.40
2015,08,28,16,02,8.10
2015,08,28,16,03,4.80
2015,08,28,16,04,3.20
2015,08,28,16,05,6.40
2015,08,28,16,06,8.10
2015,08,28,16,07,4.80
2015,08,28,16,08,1.60
2015,08,28,16,09,4.80
2015,08,28,16,10,8.10
2015,08,28,16,11,6.40
2015,08,28,16,12,4.80
2015,08,28,16,13,6.40
2015,08,28,16,14,6.40
2015,08,28,16,15,4.80
2015,08,28,16,16,3.20
2015,08,28,16,17,1.60
2015,08,28,16,18,3.20
2015,08,28,16,19,4.80
2015,08,28,16,20,8.10
2015,08,28,16,21,6.40
2015,08,28,16,22,4.80
2015,08,28,16,23,4.80
2015,08,28,16,24,3.20
2015,08,28,16,25,6.40
2015,08,28,16,26,6.40
2015,08,28,16,27,4.80
2015,08,28,16,28,4.80
2015,08,28,16,29,8.10
2015,08,28,16,30,4.80
2015,08,28,16,31,14.50
2015,08,28,16,32,6.40
2015,08,28,16,33,6.40
2015,08,28,16,34,3.20
2015,08,28,16,35,4.80
2015,08,28,16,36,3.20
2015,08,28,16,37,4.80
2015,08,28,16,38,1.60
2015,08,28,16,39,4.80
2015,08,28,16,40,6.40
2015,08,28,16,41,3.20
2015,08,28,16,42,8.10
2015,08,28,16,43,6.40
2015,08,28,16,44,4.80
2015,08,28,16,45,4.80
2015,08,28,16,46,4.80
2015,08,28,16,47,11.30
2015,08,28,16,48,8.10
2015,08,28,16,49,6.40
2015,08,28,16,50,4.80
2015,08,28,16,51,6.40
2015,08,28,16,52,3.20
2015,08,28,16,53,4.80
2015,08,28,16,54,4.80
2015,08,28,16,55,6.40
2015,08,28,16,56,6.40
2015,08,28,16,57,4.80
2015,08,28,16,58,6.40
2015,08,28,16,59,6.40
2015,08,28,17,00,4.80
2015,08,28,17,01,3.20
2015,08,28,17,02,3.20
2015,08,28,17,03,6.40
2015,08,28,17,04,4.80
2015,08,28,17,05,6.40
2015,08,28,17,06,6.40
2015,08,28,17,07,4.80
2015,08,28,17,08,4.80
2015,08,28,17,09,6.40
2015,08,28,17,10,6.40
2015,08,28,17,11,4.80
2015,08,28,17,12,4.80
2015,08,28,17,13,6.40
2015,08,28,17,14,3.20
2015,08,28,17,15,6.40
2015,08,28,17,16,9.60
2015,08,28,17,17,4.80
2015,08,28,17,18,4.80
2015,08,28,17,19,4.80
2015,08,28,17,20,4.80
2015,08,28,17,21,6.40
2015,08,28,17,22,1.60
2015,08,28,17,23,3.20
2015,08,28,17,24,4.80
2015,08,28,17,25,3.20
2015,08,28,17,26,6.40
2015,08,28,17,27,4.80
2015,08,28,17,28,3.20
2015,08,28,17,29,4.80
2015,08,28,17,30,6.40
2015,08,28,17,31,3.20
2015,08,28,17,32,4.80
2015,08,28,17,33,6.40
2015,08,28,17,34,4.80
2015,08,28,17,35,6.40
2015,08,28,17,36,6.40
2015,08,28,17,37,4.80
2015,08,28,17,38,4.80
2015,08,28,17,39,4.80
2015,08,28,17,40,8.10
2015,08,28,17,41,6.40
2015,08,28,17,42,4.80
2015,08,28,17,43,4.80
2015,08,28,17,44,4.80
2015,08,28,17,45,1.60
2015,08,28,17,46,1.60
2015,08,28,17,47,3.20
2015,08,28,17,48,4.80
2015,08,28,17,49,6.40
2015,08,28,17,50,4.80
2015,08,28,17,51,1.60
2015,08,28,17,52,6.40
2015,08,28,17,53,6.40
2015,08,28,17,54,6.40
2015,08,28,17,55,4.80
2015,08,28,17,56,3.20
2015,08,28,17,57,4.80
2015,08,28,17,58,6.40
2015,08,28,17,59,6.40
2015,08,28,18,00,4.80
2015,08,28,18,02,4.80
2015,08,28,18,03,3.20
2015,08,28,18,04,4.80
2015,08,28,18,05,11.30
2015,08,28,18,06,3.20
2015,08,28,18,07,3.20
2015,08,28,18,08,8.10
2015,08,28,18,09,4.80
2015,08,28,18,10,3.20
2015,08,28,18,11,3.20
2015,08,28,18,12,3.20
2015,08,28,18,13,6.40
2015,08,28,18,14,4.80
2015,08,28,18,16,4.80
2015,08,28,18,17,3.20
2015,08,28,18,18,3.20
2015,08,28,18,19,1.60
2015,08,28,18,20,3.20
2015,08,28,18,21,3.20
2015,08,28,18,24,1.60
2015,08,28,18,25,4.80
2015,08,28,18,26,3.20
2015,08,28,18,28,1.60
2015,08,28,18,32,3.20
2015,08,28,18,33,6.40
2015,08,28,18,34,6.40
2015,08,28,18,35,4.80
2015,08,28,18,36,4.80
2015,08,28,18,37,4.80
2015,08,28,18,39,1.60
2015,08,28,18,40,3.20
2015,08,28,18,41,4.80
2015,08,28,18,42,3.20
2015,08,28,18,43,1.60
2015,08,28,18,45,3.20
2015,08,28,18,46,1.60
2015,08,28,18,48,1.60
2015,08,28,18,49,3.20
2015,08,28,18,50,3.20
2015,08,28,19,10,4.80
2015,08,28,19,11,3.20
2015,08,28,19,12,3.20
2015,08,28,19,13,1.60
2015,08,28,19,15,3.20
2015,08,28,19,16,1.60
2015,08,28,19,17,1.60
2015,08,28,19,34,3.20
2015,08,28,19,35,3.20
2015,08,28,19,36,3.20
2015,08,28,19,37,3.20
2015,08,28,19,38,1.60
2015,08,28,20,36,1.60
2015,08,28,20,42,3.20
2015,08,28,20,43,3.20
2015,08,28,20,44,4.80
2015,08,28,20,45,3.20
2015,08,28,20,46,3.20
2015,08,28,20,47,1.60
2015,08,28,20,49,1.60
2015,08,28,20,50,3.20
2015,08,28,20,51,3.20
2015,08,28,20,52,4.80
2015,08,28,20,53,3.20
2015,08,28,20,54,3.20
2015,08,28,20,55,3.20
2015,08,28,20,56,3.20
2015,08,28,20,57,4.80
2015,08,28,20,58,3.20
2015,08,28,21,00,3.20
2015,08,28,21,01,3.20
2015,08,28,21,02,1.60
2015,08,28,21,03,3.20
2015,08,28,21,04,3.20
2015,08,28,21,05,3.20
2015,08,28,21,06,3.20
2015,08,28,21,07,3.20
2015,08,28,21,08,3.20
2015,08,28,21,09,3.20
2015,08,28,21,10,3.20
2015,08,28,21,11,3.20
2015,08,28,21,12,3.20
2015,08,28,21,13,3.20
2015,08,28,21,14,3.20
2015,08,28,21,15,3.20
2015,08,28,21,16,3.20
2015,08,28,21,17,3.20
2015,08,28,21,19,3.20
2015,08,28,21,20,3.20
2015,08,28,21,21,3.20
2015,08,28,21,22,4.80
2015,08,28,21,23,4.80
2015,08,28,21,24,4.80
2015,08,28,21,25,4.80
2015,08,28,21,26,3.20
2015,08,28,21,31,3.20
2015,08,28,21,32,4.80
2015,08,28,21,33,4.80
2015,08,28,21,34,4.80
2015,08,28,21,35,3.20
2015,08,28,21,36,3.20
2015,08,28,21,37,3.20
2015,08,28,21,43,3.20
2015,08,28,21,44,3.20
2015,08,28,21,45,3.20
2015,08,28,21,46,3.20
2015,08,28,21,47,3.20
2015,08,28,21,48,1.60
2015,08,28,21,52,3.20
2015,08,28,21,53,3.20
2015,08,28,21,59,3.20
2015,08,28,22,00,3.20
2015,08,28,22,01,1.60
2015,08,28,23,13,1.60
2015,08,28,23,14,3.20
2015,08,28,23,41,3.20
2015,08,28,23,42,1.60
2015,08,28,23,45,3.20
2015,08,28,23,46,3.20
2015,08,28,23,47,3.20
2015,08,28,23,48,3.20
2015,08,28,23,51,3.20
2015,08,28,23,52,1.60
2015,08,28,23,55,3.20
2015,08,28,23,56,3.20
2015,08,28,23,58,1.60
2015,08,28,23,59,3.20
